Time,TemperatureF,DewpointF,PressureIn,WindDirection,WindDirectionDegrees,WindSpeedMPH,WindSpeedGustMPH,Humidity,HourlyPrecipIn,Conditions,Clouds,dailyrainin,SolarRadiationWatts/m^2,SoftwareType,DateUTC
2013-03-31 00:23:00,64.0,62.0,-100.00,NNW,331,6.0,14.0,92,0.00,,,0.00,0.000000,,2013-03-31 10:23:00,
2013-03-31 00:32:00,64.0,62.0,-100.00,NNW,331,6.0,14.0,92,0.00,,,0.00,0.000000,,2013-03-31 10:32:00,
2013-03-31 00:42:00,64.0,62.0,-100.00,NNW,331,6.0,14.0,92,0.00,,,0.00,0.000000,,2013-03-31 10:42:00,
2013-03-31 00:52:00,64.0,62.0,-100.00,NNW,331,6.0,14.0,92,0.00,,,0.00,0.000000,,2013-03-31 10:52:00,
2013-03-31 01:23:00,62.0,57.0,-100.00,NNW,342,6.0,16.0,84,0.00,,,0.00,0.000000,,2013-03-31 11:23:00,
2013-03-31 01:32:00,62.0,57.0,-100.00,NNW,342,6.0,16.0,84,0.00,,,0.00,0.000000,,2013-03-31 11:32:00,
2013-03-31 01:42:00,62.0,57.0,-100.00,NNW,342,6.0,16.0,84,0.00,,,0.00,0.000000,,2013-03-31 11:42:00,
2013-03-31 01:52:00,62.0,57.0,-100.00,NNW,342,6.0,16.0,84,0.00,,,0.00,0.000000,,2013-03-31 11:52:00,
2013-03-31 02:22:00,63.0,58.0,-100.00,NNW,335,6.0,16.0,83,0.00,,,0.00,0.000000,,2013-03-31 12:22:00,
2013-03-31 02:32:00,63.0,58.0,-100.00,NNW,335,6.0,16.0,83,0.00,,,0.00,0.000000,,2013-03-31 12:32:00,
2013-03-31 02:42:00,63.0,58.0,-100.00,NNW,335,6.0,16.0,83,0.00,,,0.00,0.000000,,2013-03-31 12:42:00,
2013-03-31 02:52:00,63.0,58.0,-100.00,NNW,335,6.0,16.0,83,0.00,,,0.00,0.000000,,2013-03-31 12:52:00,
2013-03-31 03:22:00,63.0,56.0,-100.00,NNW,328,6.0,20.0,79,0.00,,,0.00,0.000000,,2013-03-31 13:22:00,
2013-03-31 03:32:00,63.0,56.0,-100.00,NNW,328,6.0,20.0,79,0.00,,,0.00,0.000000,,2013-03-31 13:32:00,
2013-03-31 03:42:00,63.0,56.0,-100.00,NNW,328,6.0,20.0,79,0.00,,,0.00,0.000000,,2013-03-31 13:42:00,
2013-03-31 03:52:00,63.0,56.0,-100.00,NNW,328,6.0,20.0,79,0.00,,,0.00,0.000000,,2013-03-31 13:52:00,
2013-03-31 04:22:00,63.0,56.0,-100.00,NNW,338,7.0,18.0,79,0.00,,,0.00,0.000000,,2013-03-31 14:22:00,
2013-03-31 04:32:00,63.0,56.0,-100.00,NNW,338,7.0,18.0,79,0.00,,,0.00,0.000000,,2013-03-31 14:32:00,
2013-03-31 04:42:00,63.0,56.0,-100.00,NNW,338,7.0,18.0,79,0.00,,,0.00,0.000000,,2013-03-31 14:42:00,
2013-03-31 04:52:00,63.0,56.0,-100.00,NNW,338,7.0,18.0,79,0.00,,,0.00,0.000000,,2013-03-31 14:52:00,
2013-03-31 05:22:00,61.0,53.0,-100.00,NNW,330,7.0,19.0,75,0.00,,,0.00,0.000000,,2013-03-31 15:22:00,
2013-03-31 05:33:00,61.0,53.0,-100.00,NNW,330,7.0,19.0,75,0.00,,,0.00,0.000000,,2013-03-31 15:33:00,
2013-03-31 05:43:00,61.0,53.0,-100.00,NNW,330,7.0,19.0,75,0.00,,,0.00,0.000000,,2013-03-31 15:43:00,
2013-03-31 05:53:00,61.0,53.0,-100.00,NNW,330,7.0,19.0,75,0.00,,,0.00,0.000000,,2013-03-31 15:53:00,
2013-03-31 06:22:00,62.0,57.0,-100.00,NNW,334,6.0,19.0,84,0.00,,,0.00,0.000000,,2013-03-31 16:22:00,
2013-03-31 06:33:00,62.0,57.0,-100.00,NNW,334,6.0,19.0,84,0.00,,,0.00,0.000000,,2013-03-31 16:33:00,
2013-03-31 06:42:00,62.0,57.0,-100.00,NNW,334,6.0,19.0,84,0.00,,,0.00,0.000000,,2013-03-31 16:42:00,
2013-03-31 06:52:00,62.0,57.0,-100.00,NNW,334,6.0,19.0,84,0.00,,,0.00,0.000000,,2013-03-31 16:52:00,
2013-03-31 07:22:00,60.0,53.0,-100.00,NW,324,6.0,21.0,77,0.00,,,0.00,7.000000,,2013-03-31 17:22:00,
2013-03-31 07:32:00,60.0,53.0,-100.00,NW,324,6.0,21.0,77,0.00,,,0.00,7.000000,,2013-03-31 17:32:00,
2013-03-31 07:42:00,60.0,53.0,-100.00,NW,324,6.0,21.0,77,0.00,,,0.00,7.000000,,2013-03-31 17:42:00,
2013-03-31 07:52:00,60.0,53.0,-100.00,NW,324,6.0,21.0,77,0.00,,,0.00,7.000000,,2013-03-31 17:52:00,
2013-03-31 08:22:00,64.0,54.0,-100.00,NNW,328,8.0,17.0,70,0.00,,,0.00,80.000000,,2013-03-31 18:22:00,
2013-03-31 08:32:00,64.0,54.0,-100.00,NNW,328,8.0,17.0,70,0.00,,,0.00,80.000000,,2013-03-31 18:32:00,
2013-03-31 08:42:00,64.0,54.0,-100.00,NNW,328,8.0,17.0,70,0.00,,,0.00,80.000000,,2013-03-31 18:42:00,
2013-03-31 08:52:00,64.0,54.0,-100.00,NNW,328,8.0,17.0,70,0.00,,,0.00,80.000000,,2013-03-31 18:52:00,
2013-03-31 09:22:00,68.0,57.0,-100.00,NNW,333,10.0,24.0,69,0.00,,,0.00,156.000000,,2013-03-31 19:22:00,
2013-03-31 09:32:00,68.0,57.0,-100.00,NNW,333,10.0,24.0,69,0.00,,,0.00,156.000000,,2013-03-31 19:32:00,
2013-03-31 09:42:00,68.0,57.0,-100.00,NNW,333,10.0,24.0,69,0.00,,,0.00,156.000000,,2013-03-31 19:42:00,
2013-03-31 09:53:00,68.0,57.0,-100.00,NNW,333,10.0,24.0,69,0.00,,,0.00,156.000000,,2013-03-31 19:53:00,
2013-03-31 10:22:00,68.0,56.0,-100.00,NNW,337,7.0,24.0,65,0.00,,,0.00,233.000000,,2013-03-31 20:22:00,
2013-03-31 10:33:00,68.0,56.0,-100.00,NNW,337,7.0,24.0,65,0.00,,,0.00,233.000000,,2013-03-31 20:33:00,
2013-03-31 10:42:00,68.0,56.0,-100.00,NNW,337,7.0,24.0,65,0.00,,,0.00,233.000000,,2013-03-31 20:42:00,
2013-03-31 10:52:00,68.0,56.0,-100.00,NNW,337,7.0,24.0,65,0.00,,,0.00,233.000000,,2013-03-31 20:52:00,
2013-03-31 11:22:00,69.0,57.0,-100.00,NNW,335,9.0,26.0,65,0.00,,,0.00,238.000000,,2013-03-31 21:22:00,
2013-03-31 11:33:00,69.0,57.0,-100.00,NNW,335,9.0,26.0,65,0.00,,,0.00,238.000000,,2013-03-31 21:33:00,
2013-03-31 11:43:00,69.0,57.0,-100.00,NNW,335,9.0,26.0,65,0.00,,,0.00,238.000000,,2013-03-31 21:43:00,
2013-03-31 11:53:00,69.0,57.0,-100.00,NNW,335,9.0,26.0,65,0.00,,,0.00,238.000000,,2013-03-31 21:53:00,
2013-03-31 12:23:00,69.0,57.0,-100.00,NW,320,9.0,20.0,66,0.00,,,0.00,393.000000,,2013-03-31 22:23:00,
2013-03-31 12:33:00,69.0,57.0,-100.00,NW,320,9.0,20.0,66,0.00,,,0.00,393.000000,,2013-03-31 22:33:00,
2013-03-31 12:42:00,69.0,57.0,-100.00,NW,320,9.0,20.0,66,0.00,,,0.00,393.000000,,2013-03-31 22:42:00,
2013-03-31 12:52:00,69.0,57.0,-100.00,NW,320,9.0,20.0,66,0.00,,,0.00,393.000000,,2013-03-31 22:52:00,
2013-03-31 13:22:00,68.0,56.0,-100.00,NW,323,8.0,22.0,66,0.00,,,0.00,410.000000,,2013-03-31 23:22:00,
2013-03-31 13:32:00,68.0,56.0,-100.00,NW,323,8.0,22.0,66,0.00,,,0.00,410.000000,,2013-03-31 23:32:00,
2013-03-31 13:42:00,68.0,56.0,-100.00,NW,323,8.0,22.0,66,0.00,,,0.00,410.000000,,2013-03-31 23:42:00,
2013-03-31 13:52:00,68.0,56.0,-100.00,NW,323,8.0,22.0,66,0.00,,,0.00,410.000000,,2013-03-31 23:52:00,
2013-03-31 14:22:00,70.0,61.0,-100.00,NW,313,10.0,25.0,72,0.00,,,0.00,510.000000,,2013-04-01 00:22:00,
2013-03-31 14:32:00,70.0,61.0,-100.00,NW,313,10.0,25.0,72,0.00,,,0.00,510.000000,,2013-04-01 00:32:00,
2013-03-31 14:42:00,70.0,61.0,-100.00,NW,313,10.0,25.0,72,0.00,,,0.00,510.000000,,2013-04-01 00:42:00,
2013-03-31 14:52:00,70.0,61.0,-100.00,NW,313,10.0,25.0,72,0.00,,,0.00,510.000000,,2013-04-01 00:52:00,
2013-03-31 15:22:00,69.0,60.0,-100.00,NW,313,10.0,21.0,73,0.00,,,0.00,588.000000,,2013-04-01 01:22:00,
2013-03-31 15:32:00,69.0,60.0,-100.00,NW,313,10.0,21.0,73,0.00,,,0.00,588.000000,,2013-04-01 01:32:00,
2013-03-31 15:42:00,69.0,60.0,-100.00,NW,313,10.0,21.0,73,0.00,,,0.00,588.000000,,2013-04-01 01:42:00,
2013-03-31 15:52:00,69.0,60.0,-100.00,NW,313,10.0,21.0,73,0.00,,,0.00,588.000000,,2013-04-01 01:52:00,
2013-03-31 16:22:00,69.0,59.0,-100.00,NW,318,10.0,24.0,70,0.00,,,0.00,477.000000,,2013-04-01 02:22:00,
2013-03-31 16:32:00,69.0,59.0,-100.00,NW,318,10.0,24.0,70,0.00,,,0.00,477.000000,,2013-04-01 02:32:00,
2013-03-31 16:42:00,69.0,59.0,-100.00,NW,318,10.0,24.0,70,0.00,,,0.00,477.000000,,2013-04-01 02:42:00,
2013-03-31 16:52:00,69.0,59.0,-100.00,NW,318,10.0,24.0,70,0.00,,,0.00,477.000000,,2013-04-01 02:52:00,
2013-03-31 17:22:00,68.0,58.0,-100.00,NW,306,10.0,23.0,71,0.00,,,0.00,484.000000,,2013-04-01 03:22:00,
2013-03-31 17:33:00,68.0,58.0,-100.00,NW,306,10.0,23.0,71,0.00,,,0.00,484.000000,,2013-04-01 03:33:00,
2013-03-31 17:43:00,68.0,58.0,-100.00,NW,306,10.0,23.0,71,0.00,,,0.00,484.000000,,2013-04-01 03:43:00,
2013-03-31 17:52:00,68.0,58.0,-100.00,NW,306,10.0,23.0,71,0.00,,,0.00,484.000000,,2013-04-01 03:52:00,
2013-03-31 18:23:00,65.0,56.0,-100.00,NW,324,6.0,19.0,72,0.00,,,0.00,395.000000,,2013-04-01 04:23:00,
2013-03-31 18:32:00,65.0,56.0,-100.00,NW,324,6.0,19.0,72,0.00,,,0.00,395.000000,,2013-04-01 04:32:00,
2013-03-31 18:43:00,65.0,56.0,-100.00,NW,324,6.0,19.0,72,0.00,,,0.00,395.000000,,2013-04-01 04:43:00,
2013-03-31 18:52:00,65.0,56.0,-100.00,NW,324,6.0,19.0,72,0.00,,,0.00,395.000000,,2013-04-01 04:52:00,
2013-03-31 19:22:00,63.0,56.0,-100.00,NW,314,9.0,19.0,79,0.00,,,0.00,29.000000,,2013-04-01 05:22:00,
2013-03-31 19:32:00,63.0,56.0,-100.00,NW,314,9.0,19.0,79,0.00,,,0.00,29.000000,,2013-04-01 05:32:00,
2013-03-31 19:42:00,63.0,56.0,-100.00,NW,314,9.0,19.0,79,0.00,,,0.00,29.000000,,2013-04-01 05:42:00,
2013-03-31 19:52:00,63.0,56.0,-100.00,NW,314,9.0,19.0,79,0.00,,,0.00,29.000000,,2013-04-01 05:52:00,
2013-03-31 20:22:00,64.0,57.0,-100.00,NW,310,9.0,19.0,78,0.00,,,0.00,0.000000,,2013-04-01 06:22:00,
2013-03-31 20:33:00,64.0,57.0,-100.00,NW,310,9.0,19.0,78,0.00,,,0.00,0.000000,,2013-04-01 06:33:00,
2013-03-31 20:42:00,64.0,57.0,-100.00,NW,310,9.0,19.0,78,0.00,,,0.00,0.000000,,2013-04-01 06:42:00,
2013-03-31 20:52:00,64.0,57.0,-100.00,NW,310,9.0,19.0,78,0.00,,,0.00,0.000000,,2013-04-01 06:52:00,
2013-03-31 21:22:00,62.0,55.0,-100.00,NW,306,7.0,18.0,79,0.00,,,0.00,0.000000,,2013-04-01 07:22:00,
2013-03-31 21:32:00,62.0,55.0,-100.00,NW,306,7.0,18.0,79,0.00,,,0.00,0.000000,,2013-04-01 07:32:00,
2013-03-31 21:42:00,62.0,55.0,-100.00,NW,306,7.0,18.0,79,0.00,,,0.00,0.000000,,2013-04-01 07:42:00,
2013-03-31 21:52:00,62.0,55.0,-100.00,NW,306,7.0,18.0,79,0.00,,,0.00,0.000000,,2013-04-01 07:52:00,
2013-03-31 22:22:00,63.0,56.0,-100.00,NW,306,7.0,15.0,79,0.00,,,0.00,0.000000,,2013-04-01 08:22:00,
2013-03-31 22:32:00,63.0,56.0,-100.00,NW,306,7.0,15.0,79,0.00,,,0.00,0.000000,,2013-04-01 08:32:00,
2013-03-31 22:43:00,63.0,56.0,-100.00,NW,306,7.0,15.0,79,0.00,,,0.00,0.000000,,2013-04-01 08:43:00,
2013-03-31 22:52:00,63.0,56.0,-100.00,NW,306,7.0,15.0,79,0.00,,,0.00,0.000000,,2013-04-01 08:52:00,
2013-03-31 23:22:00,63.0,57.0,-100.00,WNW,299,7.0,16.0,82,0.00,,,0.00,0.000000,,2013-04-01 09:22:00,
2013-03-31 23:33:00,63.0,57.0,-100.00,WNW,299,7.0,16.0,82,0.00,,,0.00,0.000000,,2013-04-01 09:33:00,
2013-03-31 23:42:00,63.0,57.0,-100.00,WNW,299,7.0,16.0,82,0.00,,,0.00,0.000000,,2013-04-01 09:42:00,
2013-03-31 23:52:00,63.0,57.0,-100.00,WNW,299,7.0,16.0,82,0.00,,,0.00,0.000000,,2013-04-01 09:52:00,